{"data":{"norad_id":62931,"epoch":"2026-05-25T02:57:34.064352Z","epoch_age_seconds":57650,"freshness":"FRESH","line1":"1 62931U 25028D   26145.12331093  .00001197  00000+0  17729-3 0  9994","line2":"2 62931  97.8966 197.2475 0001162 113.4952 246.6381 14.76935524 69379","mean_motion":14.76935524,"eccentricity":0.0001162,"inclination_deg":97.8966,"raan_deg":197.2475,"arg_perigee_deg":113.4952,"mean_anomaly_deg":246.6381,"bstar":0.00017729,"rev_number":6937,"period_min":97.499178305363,"perigee_km":638.19852487274,"apogee_km":639.82931074603,"semimajor_km":7017.1509178094,"source":"CELESTRAK","updated_at":"2026-05-25T13:38:03.363563Z"}}